Flag for Canada Weather past 2 weeks in Saint John, New Brunswick, Canada

Now
45 °F

Partly sunny.


Feels Like: 38 °F
Forecast: 46 / 64 °F
Wind: 13 mph from Northeast

Location: Saint John

Current Time: Oct 2, 2014 at 10:14:26 AM

Latest Report: Oct 2, 2014 at 9:00 AM


Visibility: 15 mi

Pressure: 30.25 "Hg

Humidity: 100%

Dew point: 45 °F

Location of Saint JohnLocation

Historic Weather in Saint John — Graph

°F

Saint John temperature yesterday

Maximum temperature yesterday: 57 °F (at 12:00 PM)
Minimum temperature yesterday: 50 °F (at 9:00 PM)
Average temperature yesterday: 53 °F

Past Weeks' High & Low Weather Summary

 TemperatureHumidityPressure
High75 °F (Sep 21, 4:00 PM)100% (Sep 17, 8:00 AM)30.65 "Hg (Sep 17, 8:00 AM)
Low28 °F (Sep 19, 11:00 PM)24% (Sep 19, 6:00 PM)29.40 "Hg (Sep 22, 5:00 AM)
Average53 °F82%30.12 "Hg
* Reported Sep 17 8:00 AM — Oct 2 8:00 AM, Saint John, Weather by CustomWeather, © 2014

Note: Actual official high and low records may vary slightly from our data, if they occured in-between our weather recording intervals... More about our weather records

Advertising

Saint John weather history for previous 24 hours

 ConditionsComfort  
Time TempWeatherWind HumidityBarometerVisibility
8:00 AM
Oct 2
43 °FFog.9 mph100%30.25 "Hg1 mi
7:00 AM43 °FFog.8 mph100%30.25 "Hg4 mi
6:00 AM41 °FPassing clouds.8 mph100%30.22 "Hg15 mi
5:00 AM41 °FPassing clouds.6 mph100%30.21 "Hg15 mi
4:00 AM41 °FPassing clouds.6 mph100%30.21 "Hg15 mi
3:00 AM43 °FPassing clouds.5 mph93%30.23 "Hg15 mi
2:00 AM46 °FPassing clouds.9 mph87%30.21 "Hg15 mi
1:00 AM48 °FMostly cloudy.9 mph87%30.22 "Hg15 mi
12:00 AM50 °FOvercast.9 mph88%30.23 "Hg15 mi
11:00 PM
Oct 1
50 °FMostly cloudy.9 mph88%30.24 "Hg15 mi
10:00 PM50 °FDrizzle. Overcast.8 mph94%30.23 "Hg10 mi
9:00 PM50 °FDrizzle. Overcast.12 mph100%30.23 "Hg15 mi
8:00 PM52 °FDrizzle. Overcast.10 mph94%30.22 "Hg10 mi
7:00 PM54 °FOvercast.7 mph88%30.20 "Hg8 mi
6:00 PM54 °FOvercast.10 mph88%30.18 "Hg15 mi
5:00 PM55 °FMostly cloudy.12 mph88%30.16 "Hg15 mi
4:00 PM55 °FOvercast.9 mph88%30.16 "Hg15 mi
3:00 PM55 °FOvercast.10 mph88%30.16 "Hg15 mi
2:00 PM55 °FOvercast.10 mph94%30.17 "Hg15 mi
1:00 PM57 °FOvercast.9 mph88%30.17 "Hg15 mi
12:00 PM57 °FMostly cloudy.10 mph82%30.18 "Hg15 mi
11:00 AM55 °FMostly cloudy.13 mph88%30.18 "Hg15 mi
10:00 AM54 °FMore clouds than sun.12 mph94%30.18 "Hg15 mi
Weather by CustomWeather, © 2014

See weather overviewHow to use our weather pages